Starlink 32416

operational
NORAD ID: 61589 Int'l Des: 2024-187 Owner: SPXS Country: US Constellation: starlink
LEOCIRCULAR

Starlink 32416について

説明を読み込み中...

リアルタイム位置

3D地球を読み込み中...

次回通過

高度履歴

Altitude vs Time

uPlot chart will show altitude changes over time

軌道要素

1 61589U 24187R 25353.33335648 -.00017908 00000-0 -59382-3 0 9991
2 61589 53.1591 62.8367 0001202 84.8274 77.6132 15.30207455 5794
Epoch: Dec 19, 2025 • Age: 9 hours

現在のステータス

高度 480.7 km
速度 7.63 km/s
衛星直下点 51.95°N, 176.69°W
打ち上げ日 Oct 18, 2024
運用期間 1.1 years
タイプ internet

技術仕様

分類 Payload
質量 730.00 kg
乾燥質量 700.00 kg
総質量 730.00 kg
長さ 0.30 m
直径 4.10 m
スパン 29.00 m
形状 Box + pan
製造者 SPXS
バスタイプ Starlink V2M
フェーズステータス In Orbit
所有者/国 SPXS/US

大規模コンステレーション

Loading constellations...